Theta_e
353 353 352 351 350 350 349 348 346 345 344 344 344 344 344 344 343 344 346 347 347 347 347 348 349 349 349 349 348 347 347 347 346 343 342 342 342 343 342 342 342 342 343 345 345 344 345 344 343 345 348 351 353 353 353 352 352 353 355 355 356 357 356
353 353 352 351 351 350 350 348 346 346 345 345 344 344 344 344 343 344 345 347 347 347 347 348 348 349 349 349 348 347 347 346 346 344 342 342 341 341 342 341 340 340 340 342 341 342 344 346 345 344 347 349 351 353 353 353 352 352 354 355 356 356 355
353 353 352 351 351 351 351 349 347 347 346 345 344 344 345 344 343 344 344 346 347 346 347 348 348 349 348 349 348 347 347 346 346 345 343 342 340 341 341 341 339 339 340 341 339 339 341 345 345 344 345 347 349 351 353 354 353 352 353 355 356 355 355
353 353 351 351 351 350 351 349 347 347 346 346 345 344 344 344 344 343 344 345 346 346 347 347 348 348 348 349 348 348 347 346 346 345 344 343 342 343 344 342 340 339 341 341 340 340 340 343 346 345 344 346 348 349 351 353 353 352 354 355 356 356 355
354 353 351 352 351 350 350 350 348 348 347 346 346 344 345 344 345 344 343 344 346 346 346 346 347 348 348 348 348 348 347 346 345 344 344 345 345 345 345 344 342 341 340 341 340 342 342 343 345 346 346 345 347 348 350 352 353 352 355 356 356 356 355
354 353 352 351 351 350 350 350 349 348 348 347 346 345 345 344 344 345 343 344 345 346 346 346 347 348 348 348 348 347 348 347 345 344 344 344 345 345 344 343 342 341 341 340 341 342 344 344 345 346 347 346 346 348 349 352 353 353 355 357 357 356 355
352 353 354 350 350 350 350 350 350 348 348 348 347 346 345 345 345 345 344 344 345 346 346 346 346 347 348 348 348 347 347 348 347 346 344 343 343 343 344 344 342 341 342 341 342 343 345 345 345 346 347 347 346 347 349 351 352 353 354 357 357 357 355
352 351 352 352 350 350 349 350 351 349 348 348 347 347 346 346 346 345 345 345 345 345 346 347 347 346 348 348 348 348 347 347 347 346 346 344 343 342 342 343 343 343 343 343 343 345 345 346 345 346 347 347 346 347 348 349 350 352 353 356 357 357 356
352 351 351 351 349 350 350 349 350 350 349 348 347 348 346 346 346 345 346 346 345 346 346 347 348 347 348 348 348 348 348 347 347 346 346 345 345 343 342 341 342 343 344 344 344 345 346 346 345 346 346 347 346 346 347 348 349 351 353 354 356 356 356
350 350 351 351 350 350 351 349 350 350 349 348 347 347 347 347 347 346 346 346 347 347 346 346 348 348 349 349 349 349 349 349 348 347 347 346 345 344 344 342 341 342 344 345 345 345 344 345 344 345 346 346 347 348 348 349 350 351 352 353 355 355 356
353 353 353 351 349 350 350 352 353 351 349 349 348 348 347 348 347 347 347 347 348 348 347 347 347 349 349 350 350 350 350 350 349 349 349 348 347 346 345 344 343 342 342 343 345 345 344 343 343 344 346 346 348 348 348 349 350 352 352 352 353 355 354
350 354 357 358 356 353 352 351 352 352 351 349 348 349 348 347 347 348 348 348 348 348 349 348 348 349 349 350 351 351 351 351 350 350 350 349 349 348 347 346 345 344 343 343 343 344 344 344 344 344 345 346 346 347 347 348 350 351 351 353 353 354 354
343 346 349 353 357 361 364 361 355 352 350 350 349 349 349 349 349 348 349 349 349 350 350 349 349 349 350 350 351 352 352 352 351 351 351 350 350 349 349 348 347 346 345 344 344 345 345 346 346 345 346 346 345 346 346 346 348 348 350 351 353 354 355
337 339 341 345 347 352 359 364 364 357 351 350 351 351 350 350 349 349 350 350 350 351 351 351 351 350 351 351 351 353 353 353 353 352 352 351 351 351 350 349 349 347 346 346 345 345 346 347 348 348 347 347 346 346 346 346 347 348 349 350 352 353 354
335 336 337 339 341 344 346 350 357 358 355 351 351 351 351 351 351 351 351 351 352 352 352 353 352 352 352 352 352 353 353 353 354 353 353 353 352 351 351 351 349 348 348 347 346 346 346 347 347 348 348 349 348 348 348 348 348 349 349 351 351 353 354
334 334 335 336 337 339 340 342 346 349 351 352 353 354 352 352 353 352 353 352 353 354 354 354 354 354 353 354 353 353 353 354 354 354 354 353 353 353 352 351 351 350 349 348 347 347 347 346 347 348 349 350 349 350 350 351 351 350 351 351 352 352 353
333 333 334 334 335 336 337 338 341 343 346 348 350 353 353 353 353 352 353 354 353 355 355 355 355 356 354 355 355 354 354 354 354 354 354 354 354 354 353 352 352 351 350 349 348 348 348 348 348 348 349 350 351 351 352 352 352 352 352 352 352 352 353
333 332 332 333 333 334 334 335 337 340 343 346 349 350 351 353 355 354 353 355 354 356 357 357 358 357 357 356 356 356 356 356 356 356 355 355 354 354 354 353 353 352 351 350 350 350 349 349 349 349 350 351 351 352 352 353 353 352 353 353 353 353 353
333 332 332 332 332 332 333 333 336 338 341 344 346 349 350 351 353 355 354 355 355 356 357 359 359 358 359 358 357 358 358 357 357 357 356 356 356 355 355 354 353 353 353 352 352 351 351 351 351 351 351 352 352 352 353 352 353 353 353 354 353 354 354
332 332 332 331 331 331 331 333 334 336 338 342 344 346 348 350 350 352 354 355 355 355 356 359 360 360 360 360 360 359 360 359 359 359 358 358 358 357 356 355 355 354 354 353 353 352 352 352 352 352 352 352 353 353 352 353 353 352 353 353 353 353 354
330 330 331 331 331 331 331 333 334 335 337 340 342 343 345 346 348 350 351 354 355 355 356 358 359 361 361 361 360 360 360 360 360 360 360 359 358 358 358 356 356 355 354 354 354 353 354 353 354 353 353 354 353 353 353 353 353 353 354 353 353 354 354
328 328 329 330 330 330 331 332 333 334 336 339 340 342 343 344 345 348 351 352 353 354 355 357 358 359 360 360 359 360 360 361 361 361 360 360 360 359 359 358 357 356 356 355 354 354 354 354 354 354 354 354 354 354 354 354 353 354 354 353 353 354 354
327 327 327 328 328 329 330 331 333 334 336 338 339 341 342 342 344 348 351 353 354 353 353 355 355 356 357 357 358 358 357 358 360 361 361 361 361 360 359 358 358 357 356 356 354 354 354 354 354 355 355 355 355 355 355 355 354 354 354 354 354 354 355
326 326 326 326 327 328 329 331 332 334 336 337 338 339 341 342 343 346 350 353 356 355 355 355 354 354 354 355 356 357 357 356 356 359 361 362 361 361 360 359 358 358 357 356 355 355 355 354 355 354 355 355 355 355 355 355 355 354 354 354 354 354 355
326 325 325 326 327 328 329 330 332 334 335 336 336 336 339 341 343 346 348 351 354 357 359 359 359 358 357 355 354 355 357 357 355 356 360 362 362 361 361 360 359 359 358 357 356 355 355 355 355 355 356 355 356 355 356 355 355 354 355 354 354 354 354
325 325 325 326 326 327 329 330 331 334 334 334 334 335 337 340 343 346 348 350 352 357 360 359 359 360 360 359 358 357 357 357 358 358 362 364 363 362 362 361 360 359 358 357 357 356 355 355 355 355 356 356 356 356 355 355 355 355 355 354 355 354 354
324 324 324 325 326 328 329 330 330 332 333 332 332 333 334 337 340 343 346 347 349 352 352 350 351 352 355 357 360 360 360 359 360 362 364 365 364 363 362 362 360 360 358 358 357 356 356 355 356 356 356 356 356 356 356 356 356 355 355 354 354 354 354
323 323 324 325 326 328 329 329 330 331 331 330 331 331 331 333 335 337 340 343 345 345 344 344 346 347 350 354 358 362 363 362 362 364 365 365 364 363 363 362 361 360 359 359 358 357 356 356 356 356 356 356 356 357 356 356 356 356 356 355 355 355 354
323 323 323 325 326 327 328 328 329 329 329 329 329 329 329 330 332 333 336 338 339 339 339 341 343 345 347 352 356 361 363 364 363 364 365 366 365 364 364 363 361 360 359 359 358 357 357 357 357 356 357 356 357 357 357 357 357 356 356 356 355 355 355
323 322 322 324 326 327 327 328 329 328 327 327 328 327 327 328 330 331 333 333 334 335 338 339 342 344 347 351 355 358 361 364 364 364 365 365 365 365 363 362 361 361 360 359 359 357 358 357 357 356 357 356 357 358 357 358 357 357 357 357 356 356 356
322 322 321 323 325 326 326 328 328 326 326 326 326 326 327 327 328 329 330 330 331 334 336 338 340 343 347 350 353 355 359 362 363 363 365 365 365 365 364 363 362 361 360 359 359 358 358 357 357 357 357 356 357 357 357 358 358 357 357 357 357 356 356
321 322 322 322 325 325 325 327 327 326 325 326 325 325 326 326 326 327 328 328 329 332 334 336 339 342 346 349 351 353 356 360 363 363 365 365 365 365 365 364 362 362 360 360 360 359 358 358 358 357 357 357 357 357 358 358 358 358 358 358 357 357 357
320 322 322 323 324 325 324 326 327 326 326 325 325 324 325 325 325 326 326 327 328 331 333 335 338 342 345 348 349 352 356 360 362 363 364 365 366 365 365 364 363 362 361 361 360 359 359 359 358 358 357 357 357 357 357 358 357 358 358 357 357 357 357
320 321 323 323 323 323 323 325 327 326 325 325 325 324 324 324 325 325 325 325 328 329 331 334 338 342 345 346 349 352 356 358 361 363 364 365 365 365 365 364 363 363 361 361 361 360 359 359 358 358 358 358 357 357 357 357 358 358 358 357 357 357 357
320 321 323 323 323 322 322 324 326 325 325 324 324 323 323 324 324 324 324 324 326 328 329 332 337 341 343 345 348 352 354 356 359 362 363 365 365 365 365 365 365 364 362 362 362 362 361 360 360 359 359 359 358 358 357 357 358 358 358 358 358 357 357
320 321 322 324 323 322 322 324 325 325 323 323 323 323 323 323 323 324 323 324 325 327 328 332 336 340 341 342 345 349 351 353 357 360 363 364 365 365 366 365 365 365 364 363 363 362 363 362 361 360 360 359 359 359 358 358 358 358 358 358 359 359 358
319 320 321 323 324 322 323 325 325 324 322 321 322 322 322 322 322 322 323 323 325 326 328 331 334 337 338 338 340 345 348 350 353 358 362 364 365 366 366 365 365 364 364 363 363 363 362 362 362 362 361 360 360 360 359 359 359 358 358 359 359 359 359
319 321 321 324 324 323 324 325 325 322 321 320 321 321 321 321 321 320 321 323 324 325 327 330 331 333 334 336 338 341 345 348 350 353 358 362 366 366 366 365 365 364 364 364 363 363 363 363 362 362 362 362 361 360 360 360 359 358 358 358 358 359 359
Wind_Speed
14 14 14 14 14 15 15 17 21 25 28 31 33 36 37 38 39 39 39 41 41 41 42 42 41 42 42 42 41 40 39 39 39 39 38 37 35 34 33 32 30 29 29 29 27 25 23 22 22 22 21 20 19 19 17 16 17 17 15 14 13 13 14
15 15 15 14 15 16 16 19 23 26 28 31 33 35 37 38 39 40 40 41 43 43 42 42 42 42 43 43 42 41 40 40 40 40 38 37 36 34 33 33 32 31 30 29 27 26 24 23 23 22 22 21 21 20 19 18 18 19 18 16 15 14 14
15 15 16 16 16 16 17 18 23 26 29 31 33 35 38 40 42 42 42 42 43 43 42 43 43 43 43 43 42 42 42 41 41 40 39 39 37 35 34 33 33 32 31 30 28 27 26 25 24 23 23 23 22 21 20 19 19 20 20 18 17 15 15
17 18 18 18 17 17 16 18 22 27 30 32 35 37 40 41 42 43 43 44 43 42 42 43 43 43 43 42 42 42 42 41 41 41 41 40 39 37 35 34 34 34 34 33 30 28 27 27 26 25 24 24 23 23 22 21 20 21 21 20 19 17 16
19 19 17 16 17 17 17 18 23 28 30 32 36 37 39 40 40 40 41 43 44 44 44 44 43 43 42 42 42 42 43 43 42 42 42 41 39 37 35 35 36 36 36 35 33 31 30 29 28 27 27 26 25 24 24 23 21 21 22 21 20 20 19
17 17 16 16 17 17 18 19 24 30 31 32 35 36 37 38 37 39 40 40 41 42 43 43 43 42 41 42 42 41 41 42 42 42 41 40 39 37 36 37 37 37 38 37 36 34 32 31 30 29 29 28 27 26 25 25 24 23 23 23 23 22 21
14 16 16 17 17 17 18 19 24 31 33 33 34 34 35 36 37 38 39 39 40 41 40 41 42 42 42 42 41 40 40 40 41 41 40 38 38 37 38 37 36 37 38 38 37 36 34 33 32 31 30 29 29 27 27 26 26 25 25 25 25 25 23
14 15 17 17 17 18 17 17 22 28 31 31 31 32 34 36 36 37 37 38 39 39 40 41 42 43 42 41 41 41 41 40 40 40 40 38 37 37 38 37 37 36 36 36 37 36 35 34 33 32 31 31 30 29 28 27 27 26 26 27 27 27 26
16 14 15 15 15 16 15 16 21 25 27 29 30 31 33 35 36 36 38 38 38 39 40 42 43 43 42 41 41 42 41 40 39 39 39 39 38 38 38 38 37 36 35 35 35 35 35 35 34 33 32 31 31 30 29 29 28 27 27 28 29 29 29
14 13 14 13 12 13 12 14 18 20 22 25 28 30 32 34 35 36 37 37 38 39 41 41 41 41 40 40 40 40 40 39 38 38 38 38 38 39 39 38 37 37 36 35 34 33 34 34 33 33 32 32 32 31 31 30 30 29 29 29 30 30 31
3 4 7 10 11 11 11 13 14 15 18 23 26 28 31 32 34 35 36 37 38 38 39 40 40 39 39 39 39 38 38 38 38 37 37 38 38 39 39 38 37 36 36 36 35 34 33 33 33 32 32 33 33 32 32 31 31 30 30 30 31 31 31
15 12 8 3 3 6 9 11 12 14 18 23 26 28 30 31 33 34 35 36 37 37 38 38 38 38 38 38 38 38 38 38 38 38 38 38 38 38 38 37 36 36 35 36 35 35 34 33 33 33 33 33 33 33 32 32 32 32 31 31 31 31 31
17 16 15 13 11 7 4 2 6 10 14 19 23 26 28 30 31 32 33 34 35 36 36 37 38 37 37 37 37 38 38 39 39 39 38 39 38 38 37 37 37 36 36 35 35 35 34 34 33 33 34 34 34 34 34 33 32 32 32 32 31 32 32
19 19 18 17 17 16 13 9 4 2 7 12 16 19 22 25 28 30 31 33 34 34 35 36 36 37 37 37 37 37 38 39 39 39 39 38 38 37 37 36 36 36 36 35 34 34 34 34 34 33 33 34 34 35 34 34 33 32 32 32 32 32 32
19 19 19 18 18 17 16 15 12 7 2 5 11 15 17 19 22 25 27 29 31 33 34 35 36 36 36 36 37 38 38 38 38 38 37 37 37 37 37 36 36 36 36 35 35 35 34 34 33 33 33 33 34 34 34 34 34 34 33 33 33 32 33
17 17 18 17 16 16 15 15 14 13 12 9 3 5 11 16 19 23 25 27 29 31 33 35 35 36 36 36 37 38 38 37 37 36 36 36 36 36 36 36 36 35 35 35 35 35 34 33 33 33 32 32 33 33 33 34 34 35 35 34 34 34 33
17 16 16 16 15 15 15 15 14 14 15 16 16 11 3 6 14 20 22 24 26 29 32 34 35 36 37 37 37 37 37 36 36 36 36 36 36 36 36 36 36 36 35 35 35 35 34 33 32 33 32 32 32 32 33 33 35 36 36 36 36 35 34
15 16 16 16 15 14 15 15 14 14 15 17 18 18 16 9 2 12 18 21 23 25 28 31 33 34 35 36 36 36 36 36 36 36 36 36 36 36 36 36 35 36 35 35 35 35 34 34 33 33 33 32 32 32 33 34 35 36 36 37 37 36 35
13 14 14 15 15 13 13 13 13 15 18 19 19 19 18 17 11 1 10 18 21 23 25 28 30 32 33 33 34 35 35 36 35 35 36 36 37 36 36 36 36 36 36 36 35 35 34 35 35 34 33 33 32 33 33 34 36 37 37 37 38 37 36
11 12 13 14 16 14 12 13 15 18 20 21 21 21 19 18 17 13 3 9 17 20 21 21 23 24 27 30 33 34 35 35 35 36 36 36 36 36 36 36 36 36 36 36 35 35 35 35 35 35 34 34 34 34 34 35 37 37 38 38 39 38 37
9 11 11 12 14 15 15 17 19 22 23 22 23 23 21 20 20 18 12 2 10 17 19 19 19 19 19 22 27 31 34 35 35 35 36 36 36 36 36 36 36 36 36 35 35 35 35 35 35 35 35 35 34 34 34 36 37 38 38 39 39 39 38
8 9 9 10 12 14 17 21 22 23 24 24 24 22 21 22 22 20 17 11 2 10 16 19 21 22 22 20 21 24 28 32 35 35 35 35 36 36 35 35 36 36 36 35 34 34 34 34 34 35 35 35 35 34 35 37 38 38 39 40 40 39 38
8 8 9 12 14 15 17 20 21 23 25 26 26 24 23 25 24 20 18 15 9 2 8 16 20 22 24 24 24 24 24 27 31 34 35 35 35 35 36 36 36 36 36 35 34 34 34 34 34 34 35 35 35 36 36 38 39 39 39 40 39 39 38
10 11 11 14 16 17 17 19 20 21 23 23 24 25 25 25 23 19 18 17 14 10 4 7 12 14 17 20 24 25 24 25 28 31 33 35 35 36 36 36 36 37 37 36 36 35 35 35 35 35 35 36 36 37 38 39 40 40 40 40 39 39 39
12 14 14 14 16 17 18 19 19 19 20 19 21 23 22 22 21 17 16 17 17 13 8 6 6 7 10 13 16 20 23 25 28 31 33 35 36 36 36 37 37 37 37 37 36 36 35 35 34 34 35 35 37 38 39 40 40 40 40 41 40 39 39
12 14 15 15 16 18 19 19 18 17 18 20 22 22 20 19 19 15 14 15 16 14 10 10 9 8 9 10 12 16 20 23 29 35 36 36 37 37 36 37 36 36 36 35 35 35 34 34 34 34 35 35 36 37 39 40 40 40 40 41 41 40 40
14 15 17 17 17 19 19 19 18 16 16 19 22 22 21 18 16 14 13 12 12 13 15 17 17 15 12 11 12 15 17 20 29 37 39 38 38 37 36 36 36 35 36 35 35 34 33 33 33 33 34 35 36 37 38 39 40 40 41 42 42 41 41
13 15 18 20 20 18 17 17 17 16 16 17 19 20 20 18 15 13 12 11 11 14 17 20 20 19 17 14 13 14 14 17 26 35 38 38 38 37 36 36 36 35 36 35 34 33 33 33 33 33 33 34 35 36 37 38 39 40 41 42 42 42 42
11 13 15 18 19 18 16 15 16 16 16 16 17 18 18 16 15 13 12 11 12 15 18 20 20 21 19 16 15 15 15 16 22 31 35 35 36 37 37 36 36 35 35 34 33 33 33 33 33 32 32 32 33 35 36 37 38 40 41 42 43 43 43
11 14 14 15 17 19 18 15 15 17 18 17 18 19 17 15 14 14 13 14 16 16 17 18 20 21 19 16 16 17 16 16 21 28 33 35 36 37 36 35 35 35 34 34 33 31 31 32 32 31 30 30 30 32 34 36 37 38 40 42 43 44 44
11 14 14 14 15 17 17 17 15 16 17 18 19 20 19 16 14 13 14 17 18 16 16 17 18 19 19 17 16 17 17 17 19 25 31 35 36 36 36 35 34 33 33 33 33 31 31 30 31 31 30 29 30 30 31 33 35 36 38 40 43 44 45
12 14 15 13 13 15 17 18 16 15 15 17 19 21 20 18 16 14 17 20 20 17 17 17 18 18 17 17 18 19 18 17 18 23 30 34 36 37 37 36 34 33 33 33 33 33 32 30 30 30 29 29 30 29 29 30 32 35 37 38 41 44 45
11 13 14 13 12 13 15 16 16 16 16 16 19 22 21 20 18 17 19 21 20 19 18 18 18 17 17 17 19 19 18 17 17 20 27 32 35 35 35 35 35 33 32 32 32 31 30 29 28 28 28 28 28 28 28 29 31 34 35 37 39 42 44
12 13 14 13 12 12 12 13 14 16 17 16 19 22 23 21 20 21 21 21 20 19 18 17 17 17 17 18 18 18 18 18 16 17 23 29 31 33 33 33 34 33 33 35 36 33 31 31 30 30 31 30 28 28 28 29 33 36 36 36 38 41 43
15 15 15 13 12 12 12 11 11 14 15 17 18 20 21 21 21 22 23 21 20 19 18 17 16 16 17 17 18 18 19 20 18 14 19 25 28 31 34 35 37 37 38 40 42 41 39 37 35 36 35 33 32 31 29 30 35 38 37 36 38 41 42
17 16 15 13 12 13 13 11 10 12 14 16 18 19 20 20 20 22 23 22 20 20 18 17 15 15 15 16 17 18 20 22 21 16 16 22 25 27 31 33 36 39 39 39 41 44 44 43 41 40 39 36 36 37 36 38 39 38 37 37 38 39 40
20 18 16 14 12 13 14 12 11 12 13 15 17 18 19 19 19 20 22 22 21 21 19 16 15 14 14 16 16 17 19 21 21 18 14 19 25 26 26 28 32 36 39 39 38 39 43 44 43 42 40 38 38 39 41 42 40 35 34 35 36 36 37
22 20 16 13 12 13 13 12 11 11 12 13 14 16 18 18 18 19 20 20 21 21 18 16 15 15 15 16 16 17 18 19 20 20 16 15 20 25 25 24 26 29 35 38 37 35 38 41 43 42 41 40 40 39 39 40 38 35 33 32 32 34 35
Wind_Direction
192 196 198 198 198 197 197 193 191 191 190 191 192 191 191 191 191 192 194 196 197 199 199 199 200 201 203 205 207 208 210 212 214 216 218 219 220 220 218 219 220 221 222 224 225 226 226 225 222 220 220 221 224 227 229 230 227 226 229 235 244 253 251
194 197 197 198 199 199 198 195 193 192 192 193 193 192 192 192 192 192 194 196 198 199 199 199 200 201 203 206 207 209 211 212 214 217 218 219 221 223 222 223 224 225 227 228 230 232 232 231 228 226 224 224 227 230 233 236 233 230 231 235 245 253 247
196 197 196 198 198 198 198 195 195 194 193 193 193 193 194 194 194 193 194 195 197 199 199 200 201 202 204 205 207 209 211 212 214 216 218 219 220 223 225 227 228 229 231 232 234 236 237 235 232 230 228 227 230 232 235 239 238 235 233 235 244 249 243
196 198 197 197 197 196 197 196 196 196 196 195 194 195 196 196 196 195 195 196 197 198 199 200 201 202 204 205 206 209 211 212 214 216 217 219 220 222 225 228 229 230 231 232 234 236 237 236 234 232 231 231 233 234 235 238 240 237 234 236 243 245 244
198 198 196 195 196 196 197 196 196 196 196 197 196 197 198 197 196 196 197 198 198 199 200 201 202 203 204 205 206 209 211 212 214 216 218 219 220 222 224 227 229 230 230 231 232 234 236 236 234 232 232 231 234 236 236 238 239 237 235 237 243 245 245
200 197 196 196 196 197 197 197 197 196 196 196 196 197 197 197 197 198 199 199 200 200 201 201 202 203 205 206 208 209 211 213 214 216 218 219 220 221 223 226 228 229 230 230 231 233 235 236 235 233 232 232 233 235 236 238 238 236 235 237 243 246 245
205 200 198 197 198 197 197 197 196 196 197 197 196 196 196 196 197 199 199 199 200 201 200 201 202 204 205 207 208 210 211 213 214 216 217 219 220 221 222 224 226 228 229 229 230 232 234 235 235 234 233 233 233 234 236 238 239 238 236 237 242 245 244
206 205 204 199 198 196 195 196 194 194 196 196 195 194 194 196 197 198 199 200 201 201 201 202 203 204 206 207 208 210 212 213 214 216 217 219 220 222 223 224 225 227 228 229 230 232 233 234 235 234 234 233 234 235 236 237 239 239 237 237 240 242 243
204 204 208 205 201 197 194 193 191 191 193 194 194 194 193 195 197 198 199 200 200 201 202 203 204 205 206 207 208 211 212 213 215 216 217 218 220 223 225 226 226 227 227 229 231 232 233 235 235 234 234 234 235 235 236 236 238 239 239 238 238 240 243
207 203 204 203 203 202 197 191 188 187 189 191 193 194 194 195 197 198 200 200 200 202 203 203 204 205 206 207 209 211 212 213 214 215 217 218 220 223 225 226 227 228 228 230 231 233 234 235 236 236 236 235 235 235 236 237 237 238 240 240 241 241 244
313 248 214 200 199 201 195 189 187 187 188 190 192 194 194 195 197 198 199 200 201 202 203 204 204 205 206 207 209 210 212 213 214 214 216 218 221 223 225 226 226 227 229 231 233 234 236 237 237 237 237 236 236 236 237 238 239 239 239 241 242 243 245
13 9 5 341 233 212 202 193 192 193 190 189 191 194 195 195 197 199 200 201 201 202 203 203 204 205 206 207 208 210 212 212 213 214 216 218 220 223 225 226 226 226 227 230 232 234 236 238 238 237 237 237 238 238 239 240 240 240 241 241 242 243 245
15 20 19 15 14 6 339 236 207 202 197 195 193 194 196 196 196 198 199 201 202 202 202 203 204 205 206 207 208 210 211 212 214 215 216 218 220 222 224 225 226 227 227 228 230 232 234 235 237 238 238 238 239 239 241 241 241 241 242 242 241 241 243
12 16 17 18 21 18 10 5 352 193 188 197 199 199 200 201 200 199 199 200 200 201 202 202 203 205 206 208 209 211 212 213 214 215 217 218 220 221 223 225 226 227 227 228 228 230 232 233 235 237 238 239 240 241 241 242 242 242 242 242 241 240 241
10 11 11 14 17 16 13 9 5 11 65 177 192 200 203 203 204 203 202 202 201 200 201 202 203 205 206 208 210 212 213 214 215 216 217 218 219 220 222 224 226 227 227 228 228 229 231 232 234 236 237 238 239 240 240 240 241 242 242 241 240 239 240
8 6 6 8 10 10 10 9 5 7 14 21 33 198 201 201 204 204 204 204 202 201 202 201 202 204 206 208 210 212 213 214 215 216 217 217 219 220 221 222 224 226 227 228 229 230 231 232 233 234 235 236 237 238 238 238 239 241 242 242 241 240 239
7 3 360 1 2 5 7 5 4 6 9 9 10 14 26 203 205 205 207 206 203 203 202 201 202 204 206 208 211 212 213 213 214 215 216 217 218 219 221 222 222 224 226 227 229 230 231 231 232 233 234 235 236 236 236 236 238 240 241 242 241 240 239
7 0 354 352 353 359 4 2 1 1 359 357 1 9 15 14 215 202 207 208 206 205 203 202 204 205 207 209 210 211 212 213 214 214 215 216 218 219 220 221 222 222 223 225 227 229 230 231 231 232 233 234 234 235 235 236 238 239 240 241 241 240 238
5 358 352 347 344 353 1 358 357 357 352 350 353 359 6 13 17 7 207 206 206 204 202 204 206 207 209 210 210 211 212 212 213 214 215 216 217 218 220 220 220 221 222 223 225 226 228 230 231 232 232 232 232 234 235 237 239 240 240 241 241 240 238
358 352 352 347 339 345 356 353 351 353 350 348 349 352 357 6 9 8 348 203 200 198 197 200 205 209 212 212 212 212 212 212 213 213 215 216 217 218 218 218 220 221 222 223 223 224 226 227 229 231 231 231 232 233 235 237 239 240 240 241 241 241 239
354 350 349 344 338 341 348 349 349 349 346 344 346 347 350 357 3 2 359 321 197 195 193 191 193 201 210 217 219 217 213 212 212 213 215 215 216 217 217 218 219 220 221 222 222 223 224 226 228 229 230 231 231 232 234 237 239 240 240 241 241 241 239
348 348 340 336 337 339 340 341 342 342 339 339 344 344 345 351 358 359 357 352 259 200 199 197 196 197 201 211 223 226 223 218 213 212 215 215 215 216 216 217 219 220 221 221 222 223 224 225 226 228 229 230 230 231 233 236 239 240 240 241 241 240 238
334 339 336 335 335 333 334 336 339 341 340 340 342 343 344 348 352 358 0 354 346 299 207 208 209 208 205 205 210 218 228 230 222 215 214 215 215 215 216 217 218 219 219 219 220 221 222 223 225 227 228 228 229 229 232 235 237 238 240 241 241 238 236
332 336 336 333 328 328 334 339 341 344 346 342 340 343 346 344 345 355 4 355 344 344 310 235 229 228 224 217 211 210 217 230 234 225 217 215 216 216 217 217 217 218 219 218 218 219 220 222 224 225 227 227 228 229 231 234 237 237 239 240 240 237 236
334 338 335 332 330 329 334 340 341 345 349 344 339 341 344 342 340 350 5 357 339 331 326 308 288 273 263 248 230 218 214 219 231 232 224 219 219 219 218 218 218 218 218 218 219 220 220 220 221 223 225 227 229 230 231 233 236 237 238 239 239 237 235
331 331 327 330 334 333 336 342 343 345 348 344 338 339 344 346 343 348 4 359 338 328 338 343 337 326 304 284 261 241 226 218 223 229 227 223 222 222 220 219 218 218 217 218 219 220 220 220 220 222 224 226 228 230 230 232 234 235 237 238 238 237 234
326 325 324 329 335 337 339 343 341 339 341 341 340 342 346 348 349 349 357 359 342 336 344 344 339 335 327 312 291 270 251 231 224 225 225 224 223 223 222 220 218 217 216 216 217 218 219 220 220 221 224 225 227 229 230 232 233 234 236 237 238 237 234
325 327 330 333 336 339 341 340 334 331 337 341 341 343 345 347 350 348 346 349 345 337 336 336 334 331 328 325 317 301 281 252 234 227 225 224 222 220 221 220 218 217 216 215 215 216 218 219 220 221 224 225 227 228 230 231 233 233 235 236 237 237 235
316 319 325 328 330 333 338 336 328 327 334 339 340 342 347 349 345 341 340 339 337 335 334 334 333 328 326 328 328 320 304 275 248 232 225 223 220 219 219 218 216 216 215 214 214 215 216 218 220 221 223 225 226 228 229 231 232 233 234 235 237 237 237
309 312 316 319 322 329 335 330 324 327 331 335 339 341 345 351 344 336 335 333 330 333 336 334 331 327 326 327 326 321 311 289 260 238 227 223 220 218 217 216 214 213 213 213 213 213 215 217 218 220 223 225 226 227 228 229 231 233 233 235 236 237 238
298 302 307 313 318 326 330 323 320 327 329 332 340 341 341 347 346 334 330 331 332 333 335 332 329 328 326 323 320 317 311 295 270 244 229 222 219 216 215 213 211 210 211 211 211 212 214 216 216 218 221 223 225 227 227 228 229 231 233 234 236 237 238
291 293 300 310 315 322 329 324 318 323 326 330 339 343 341 342 346 341 335 334 337 340 338 336 335 331 322 316 314 313 312 301 275 248 231 222 217 216 215 212 209 208 209 209 210 213 215 215 216 217 220 222 224 226 227 227 228 229 231 232 234 236 238
288 287 292 303 308 314 325 325 318 321 326 329 337 343 341 340 345 348 344 342 345 349 345 339 336 328 316 312 312 312 313 307 284 251 231 220 216 214 214 212 211 209 208 208 209 212 215 216 216 217 219 221 223 224 226 227 227 228 228 228 230 233 235
284 282 285 297 304 306 315 321 318 321 324 327 335 339 338 338 343 348 349 351 355 353 343 334 330 322 313 311 312 311 314 316 301 261 231 219 214 212 211 210 210 210 211 211 211 211 212 215 216 217 218 219 219 220 222 225 227 227 226 224 226 229 230
287 282 280 290 301 301 303 311 317 320 322 327 334 335 334 337 345 348 349 351 354 352 341 331 326 320 315 315 316 316 321 327 323 288 242 223 216 214 213 212 211 212 215 217 217 215 214 215 216 218 219 218 217 216 216 220 227 229 227 226 227 229 229
288 283 277 281 292 297 298 303 315 323 327 333 336 333 330 335 343 349 353 354 352 348 342 334 327 321 319 320 319 318 321 327 331 316 263 233 221 217 217 217 216 216 218 221 222 222 221 220 221 222 221 220 220 220 221 225 229 230 229 228 229 230 231
281 279 276 277 283 292 296 303 317 327 332 339 340 333 328 329 335 346 355 359 354 347 340 336 331 325 323 323 318 315 318 319 324 325 294 247 227 219 217 217 217 219 221 223 225 225 225 225 226 227 225 223 224 225 227 230 232 232 230 229 229 229 232
274 275 274 272 274 284 290 297 312 325 331 338 342 334 327 326 330 341 353 358 354 349 343 338 334 328 326 326 321 318 318 316 317 322 315 273 237 222 216 215 216 219 223 225 226 227 227 228 229 229 229 229 229 229 230 231 232 232 232 231 230 230 232